Weather History for KHYA - March, 2012

Change the Weather History Date:

Tuesday, March 20, 2012

  Actual Average Record
Temperature  
Mean Temperature 54 °F -  
Max Temperature 66 °F 43 °F 66 °F (2012)
Min Temperature 42 °F 29 °F 4 °F (1967)
Degree Days  
Heating Degree Days 11    
Growing Degree Days 4 (Base 50)    
Moisture  
Dew Point 49 °F    
Average Humidity 90    
Maximum Humidity 100    
Minimum Humidity 64    
Precipitation  
Precipitation 0.00 in - - ()
Sea Level Pressure  
Sea Level Pressure 30.29 in    
Wind  
Wind Speed 3 mph (SW)    
Max Wind Speed 13 mph    
Max Gust Speed -    
Visibility 6 miles    
Events Fog    
Averages and records for this station are not official NWS values.
T = Trace of Precipitation, MM = Missing Value Source: NWS Daily Summary

Daily Weather History Graph

Daily Weather History Graph

Search for Another Location

Airport or City:

Trip Planner

Search our weather history database for the weather conditions in past years. The results will help you decide how hot, cold, wet, or windy it might be!

Date:

Astronomy

Mar. 20, 2012 Rise Set
Actual Time 6:43 AM EDT 6:53 PM EDT
Civil Twilight 6:15 AM EDT 7:21 PM EDT
Nautical Twilight 5:43 AM EDT 7:54 PM EDT
Astronomical Twilight 5:10 AM EDT 8:27 PM EDT
Moon 5:25 AM EDT (3/20) 5:17 PM EDT (3/20)
Length of Visible Light 13h 05m
Length of Day
12h 10m
Waning Crescent, 4% of the Moon is Illuminated
Mar 20
Waning Crescent
Mar 22
New
Mar 30
First Quarter
Apr 6
Full
Apr 13
Last Quarter

Hourly Weather History & Observations

Time (EDT) Temp. Windchill Dew Point Humidity Pressure Visibility Wind Dir Wind Speed Gust Speed Precip Events Conditions
12:56 AM 46.0 °F - 41.0 °F 83% 30.27 in 10.0 mi Calm Calm - N/A   Clear
1:56 AM 45.0 °F 43.5 °F 43.0 °F 93% 30.27 in 6.0 mi NW 3.5 mph - N/A   Clear
2:56 AM 45.0 °F - 43.0 °F 93% 30.26 in 6.0 mi Calm Calm - N/A   Clear
3:56 AM 42.1 °F - 39.9 °F 92% 30.26 in 6.0 mi Calm Calm - N/A   Clear
4:56 AM 43.0 °F - 41.0 °F 93% 30.28 in 5.0 mi Calm Calm - N/A   Clear
5:56 AM 43.0 °F 40.3 °F 42.1 °F 97% 30.29 in 6.0 mi North 4.6 mph - N/A   Partly Cloudy
6:25 AM 42.8 °F 41.1 °F 42.8 °F 100% 30.29 in 2.0 mi North 3.5 mph - N/A   Mostly Cloudy
6:40 AM 42.8 °F 41.1 °F 42.8 °F 100% 30.30 in 1.2 mi NNW 3.5 mph - N/A   Overcast
6:51 AM 42.8 °F - 41.0 °F 93% 30.30 in 0.5 mi Calm Calm - N/A Fog Fog
6:56 AM 42.1 °F - 41.0 °F 96% 30.30 in 0.5 mi Calm Calm - N/A Fog Fog
7:56 AM 43.0 °F - 43.0 °F 100% 30.31 in 1.0 mi Calm Calm - N/A   Overcast
8:09 AM 44.6 °F - 42.8 °F 93% 30.31 in 3.0 mi Calm Calm - N/A   Scattered Clouds
8:56 AM 46.9 °F - 46.0 °F 97% 30.32 in 10.0 mi Calm Calm - N/A   Clear
9:44 AM 53.6 °F - 46.4 °F 77% 30.31 in 10.0 mi South 3.5 mph - N/A   Partly Cloudy
9:56 AM 55.0 °F - 46.9 °F 74% 30.32 in 10.0 mi Calm Calm - N/A   Partly Cloudy
10:56 AM 59.0 °F - 48.2 °F 67% 30.32 in 10.0 mi SSW 4.6 mph - N/A   Clear
11:56 AM 61.0 °F - 48.9 °F 64% 30.31 in 10.0 mi South 6.9 mph - N/A   Clear
12:56 PM 66.0 °F - 55.0 °F 68% 30.30 in 10.0 mi South 8.1 mph - N/A   Clear
1:56 PM 63.0 °F - 52.0 °F 67% 30.29 in 10.0 mi SSE 5.8 mph - N/A   Clear
2:56 PM 62.1 °F - 53.1 °F 72% 30.27 in 10.0 mi SSW 9.2 mph - N/A   Clear
3:56 PM 66.0 °F - 55.9 °F 70% 30.26 in 10.0 mi SSW 9.2 mph - N/A   Clear
4:56 PM 64.0 °F - 55.9 °F 75% 30.26 in 10.0 mi SSW 12.7 mph - N/A   Clear
5:56 PM 61.0 °F - 55.0 °F 81% 30.26 in 10.0 mi SSW 10.4 mph - N/A   Clear
6:56 PM 59.0 °F - 55.0 °F 87% 30.25 in 10.0 mi SW 9.2 mph - N/A   Clear
7:56 PM 57.0 °F - 55.0 °F 93% 30.27 in 10.0 mi SW 8.1 mph - N/A   Clear
8:56 PM 55.0 °F - 53.1 °F 93% 30.29 in 10.0 mi SSW 6.9 mph - N/A   Clear
9:23 PM 53.6 °F - 53.6 °F 100% 30.29 in 4.0 mi SSW 6.9 mph - N/A   Scattered Clouds
9:25 PM 53.6 °F - 53.6 °F 100% 30.29 in 2.0 mi SSW 5.8 mph - N/A   Mostly Cloudy
9:30 PM 53.6 °F - 53.6 °F 100% 30.29 in 0.8 mi SSW 6.9 mph - N/A   Mist
9:44 PM 53.6 °F - 53.6 °F 100% 30.29 in 0.2 mi SSW 6.9 mph - N/A Fog Fog
9:56 PM 54.0 °F - 53.1 °F 97% 30.30 in 0.2 mi SSW 6.9 mph - N/A Fog Fog
10:20 PM 51.8 °F - 51.8 °F 100% 30.30 in 0.5 mi SSW 6.9 mph - N/A Fog Fog
10:45 PM 51.8 °F - 51.8 °F 100% 30.30 in 1.0 mi SW 4.6 mph - N/A   Mist
10:56 PM 51.1 °F - 51.1 °F 100% 30.31 in 1.5 mi SW 3.5 mph - N/A   Overcast
11:04 PM 51.8 °F - 51.8 °F 100% 30.30 in 3.0 mi Calm Calm - N/A   Overcast
11:27 PM 51.8 °F - 51.8 °F 100% 30.30 in 10.0 mi SW 8.1 mph - N/A   Scattered Clouds
11:56 PM 54.0 °F - 53.1 °F 97% 30.30 in 10.0 mi SW 9.2 mph - N/A   Clear